#timestamp,LO_Frequency,Hit,StdDev 
1544688015.7,286047005.0,N
1544688035.5,286047005.6,N
1544688055.4,286047004.1,N
1544688075.2,286047003.1,N
1544688095.0,286047000.0,N
1544688096.0,286047000.0,N
1544688115.8,286047000.0,N
1544688135.6,286046998.3,N
1544688155.5,286047002.3,N
1544688175.3,286047004.8,N
1544688195.1,286047004.5,N
1544688215.9,286047007.6,N
1544688235.7,286047006.6,N
1544688255.5,286047004.6,N
1544688275.4,286047003.1,N
1544688295.2,286047003.6,N
1544688315.1,286046999.9,N
1544688316.0,286046999.9,N
1544688335.8,286046996.7,N
1544688355.6,286046996.0,N
1544688375.5,286046996.4,N
1544688395.3,286046991.7,N
1544688415.2,286046994.0,N
1544688435.9,286046995.4,N
1544688455.7,286046998.3,N
1544688475.6,286047000.6,N
1544688495.4,286047000.3,N
1544688515.2,286047000.7,N
1544688535.1,286047001.1,N
1544688536.0,286047001.1,N
1544688555.8,286046997.4,N
1544688575.7,286046994.9,N
1544688595.5,286046995.9,N
1544688615.3,286046994.0,N
1544688635.2,286046993.0,N
1544688655.0,286046991.1,N
1544688655.9,286046991.1,N
1544688675.8,286046989.6,N
1544688695.6,286046988.7,N
1544688715.4,286046988.6,N
1544688735.3,286046990.2,N
1544688755.1,286046990.5,N
1544688775.8,286046993.2,N
1544688795.7,286046988.5,N
1544688815.5,286046988.5,N
1544688835.3,286046990.9,N
1544688855.2,286046988.8,N
1544688875.0,286046989.6,N
1544688875.9,286046989.6,N
1544688895.8,286046989.6,N
1544688915.6,286046989.9,N
1544688935.4,286046989.5,N
1544688955.3,286046988.4,N
1544688975.1,286046987.2,N
1544688995.8,286046989.8,N
1544689015.7,286046989.7,N
1544689035.5,286046985.8,Y
1544689055.4,286046994.5,P
1544689075.2,286046992.5,P
1544689095.0,286046992.1,P
1544689095.9,286046992.1,Y
1544689115.8,286047001.8,P
1544689135.6,286047002.3,N
1544689155.5,286047002.0,N
1544689175.3,286047002.6,N
1544689195.1,286047003.5,N
1544689215.9,286047006.8,N
1544689235.7,286047009.2,N
1544689255.5,286047007.9,N
1544689275.4,286047008.2,N
1544689295.2,286047005.1,N
1544689315.0,286047003.8,N
1544689316.0,286047003.8,N
1544689335.8,286047004.3,N
1544689355.6,286047000.2,N
1544689375.5,286047000.6,N
1544689395.3,286046996.5,N
1544689415.1,286046998.6,N
1544689435.9,286046997.1,N
1544689455.7,286046997.1,N
1544689475.5,286046998.1,N
1544689495.4,286047000.9,N
1544689515.2,286047000.4,N
1544689535.1,286047000.9,N
1544689536.0,286047000.9,N
1544689555.8,286047000.1,N
1544689575.6,286047001.2,N
1544689595.5,286046997.4,N
1544689615.3,286046995.0,N
1544689635.1,286046997.0,N
1544689655.9,286046995.0,N
1544689675.7,286046995.6,N
1544689695.6,286046996.7,N
1544689715.4,286046999.5,N
1544689735.2,286046994.9,N
1544689755.1,286046999.0,N
1544689756.0,286046999.0,N
1544689775.8,286046997.5,N
1544689795.7,286046996.2,N
1544689815.5,286046991.7,N
1544689835.3,286046992.2,N
1544689855.2,286046994.3,N
1544689875.0,286046993.8,N
1544689875.9,286046993.8,N
1544689895.8,286046998.0,N
1544689915.6,286046995.8,N
1544689935.4,286046995.5,N
1544689955.3,286046995.1,N
1544689975.1,286046999.0,N
1544689995.8,286047000.6,N
1544690015.7,286046998.1,N
1544690035.5,286046999.7,N
1544690055.4,286047000.6,N
1544690075.2,286047000.9,N
1544690095.0,286047000.9,N
1544690095.9,286047000.9,N
1544690115.8,286046999.5,N
1544690135.6,286047001.1,N
1544690155.5,286047001.0,N
1544690175.3,286047002.8,N
1544690195.1,286047003.5,N
1544690215.9,286047010.8,Y
1544690235.7,286047013.5,P
1544690255.5,286047011.2,N
1544690275.4,286047014.0,N
1544690295.2,286047012.9,N
1544690315.1,286047012.8,N
1544690316.0,286047012.8,N
1544690335.8,286047015.5,N
1544690355.6,286047014.8,N
1544690375.5,286047013.7,N
1544690395.3,286047012.0,N
1544690415.2,286047010.0,N
1544690435.9,286047010.7,N
1544690455.7,286047007.1,N
1544690475.6,286047004.7,N
1544690495.4,286047006.3,N
1544690515.2,286047004.6,N
1544690535.1,286047004.5,N
1544690536.0,286047004.5,N
1544690555.8,286047005.1,N
1544690575.7,286047006.5,N
1544690595.5,286047006.6,N
1544690615.3,286047012.9,N
1544690635.2,286047015.6,Y
1544690655.9,286047005.0,P
1544690675.7,286047005.7,N
1544690695.6,286047011.9,P
1544690715.4,286047001.9,N
1544690735.3,286047002.5,N
1544690755.1,286047002.0,N
1544690756.0,286047002.0,N
1544690775.8,286047002.4,N
1544690795.7,286046998.6,N
1544690815.5,286046999.2,N
1544690835.3,286046998.2,N
1544690855.2,286047001.2,N
1544690875.0,286046996.9,N
1544690875.9,286046996.9,N
1544690895.8,286046997.0,N
1544690915.6,286046996.9,N
1544690935.4,286046997.1,N
1544690955.3,286046996.5,N
1544690975.1,286046997.6,N
1544690995.8,286046998.9,N
1544691015.7,286046996.7,N
1544691035.5,286046995.3,N
1544691055.4,286046996.8,N
1544691075.2,286046996.9,N
1544691095.0,286046999.6,N
1544691095.9,286046999.6,N
1544691115.8,286046997.6,N
1544691135.6,286046995.0,N
1544691155.5,286046993.3,N
1544691175.3,286046995.9,N
1544691195.1,286046994.6,N
1544691215.9,286046994.6,N
1544691235.7,286046993.6,N
1544691255.5,286046993.5,N
1544691275.4,286046996.1,N
1544691295.2,286046995.4,N
1544691315.1,286046996.4,N
1544691316.0,286046996.4,N
1544691335.8,286046996.3,N
1544691355.6,286046997.9,N
1544691375.5,286046997.1,N
1544691395.3,286046999.0,N
1544691415.1,286046996.9,N
1544691435.9,286046997.0,N
1544691455.7,286046994.9,Y
1544691475.6,286047002.8,P
1544691495.4,286047002.5,N
1544691515.2,286047001.2,N
1544691535.1,286047002.0,N
1544691536.0,286047002.0,N
1544691555.8,286046999.7,N
1544691575.6,286047001.6,N
1544691595.5,286047001.4,N
